﻿測定場所 (Monitoring sites),日付 (Measurement date),時間 (Measurement time),線量率 最大値 (max) μGy/h,線量率 最小値 (min) μGy/h,線量率 平均値 (average) μGy/h,
江戸川 (Edogawa),2015-11-22,23:01～24:00,0.0639,0.0553,0.0597,
江戸川 (Edogawa),2015-11-22,22:01～23:00,0.0641,0.0570,0.0598,
江戸川 (Edogawa),2015-11-22,21:01～22:00,0.0620,0.0568,0.0596,
江戸川 (Edogawa),2015-11-22,20:01～21:00,0.0629,0.0565,0.0598,
江戸川 (Edogawa),2015-11-22,19:01～20:00,0.0628,0.0559,0.0596,
江戸川 (Edogawa),2015-11-22,18:01～19:00,0.0628,0.0568,0.0592,
江戸川 (Edogawa),2015-11-22,17:01～18:00,0.0616,0.0559,0.0588,
江戸川 (Edogawa),2015-11-22,16:01～17:00,0.0618,0.0557,0.0592,
江戸川 (Edogawa),2015-11-22,15:01～16:00,0.0624,0.0564,0.0589,
江戸川 (Edogawa),2015-11-22,14:01～15:00,0.0626,0.0556,0.0590,
江戸川 (Edogawa),2015-11-22,13:01～14:00,0.0629,0.0560,0.0595,
江戸川 (Edogawa),2015-11-22,12:01～13:00,0.0630,0.0558,0.0593,
江戸川 (Edogawa),2015-11-22,11:01～12:00,0.0625,0.0564,0.0597,
江戸川 (Edogawa),2015-11-22,10:01～11:00,0.0635,0.0559,0.0598,
江戸川 (Edogawa),2015-11-22,09:01～10:00,0.0629,0.0568,0.0595,
江戸川 (Edogawa),2015-11-22,08:01～09:00,0.0630,0.0569,0.0596,
江戸川 (Edogawa),2015-11-22,07:01～08:00,0.0618,0.0568,0.0592,
江戸川 (Edogawa),2015-11-22,06:01～07:00,0.0631,0.0557,0.0594,
江戸川 (Edogawa),2015-11-22,05:01～06:00,0.0630,0.0567,0.0593,
江戸川 (Edogawa),2015-11-22,04:01～05:00,0.0621,0.0563,0.0591,
江戸川 (Edogawa),2015-11-22,03:01～04:00,0.0618,0.0555,0.0590,
江戸川 (Edogawa),2015-11-22,02:01～03:00,0.0622,0.0547,0.0592,
江戸川 (Edogawa),2015-11-22,01:01～02:00,0.0624,0.0557,0.0592,
江戸川 (Edogawa),2015-11-22,00:01～01:00,0.0635,0.0564,0.0591,
江戸川 (Edogawa),2015-11-21,23:01～24:00,0.0623,0.0547,0.0588,
江戸川 (Edogawa),2015-11-21,22:01～23:00,0.0630,0.0561,0.0592,
江戸川 (Edogawa),2015-11-21,21:01～22:00,0.0620,0.0557,0.0589,
江戸川 (Edogawa),2015-11-21,20:01～21:00,0.0628,0.0549,0.0590,
江戸川 (Edogawa),2015-11-21,19:01～20:00,0.0636,0.0565,0.0593,
江戸川 (Edogawa),2015-11-21,18:01～19:00,0.0634,0.0559,0.0594,
江戸川 (Edogawa),2015-11-21,17:01～18:00,0.0632,0.0553,0.0592,
江戸川 (Edogawa),2015-11-21,16:01～17:00,0.0628,0.0562,0.0596,
江戸川 (Edogawa),2015-11-21,15:01～16:00,0.0641,0.0555,0.0599,
江戸川 (Edogawa),2015-11-21,14:01～15:00,0.0637,0.0573,0.0599,
江戸川 (Edogawa),2015-11-21,13:01～14:00,0.0634,0.0565,0.0603,
江戸川 (Edogawa),2015-11-21,12:01～13:00,0.0640,0.0573,0.0604,
江戸川 (Edogawa),2015-11-21,11:01～12:00,0.0640,0.0576,0.0601,
江戸川 (Edogawa),2015-11-21,10:01～11:00,0.0635,0.0571,0.0599,
江戸川 (Edogawa),2015-11-21,09:01～10:00,0.0625,0.0556,0.0597,
江戸川 (Edogawa),2015-11-21,08:01～09:00,0.0630,0.0556,0.0598,
江戸川 (Edogawa),2015-11-21,07:01～08:00,0.0616,0.0558,0.0590,
江戸川 (Edogawa),2015-11-21,06:01～07:00,0.0642,0.0555,0.0593,
江戸川 (Edogawa),2015-11-21,05:01～06:00,0.0627,0.0566,0.0594,
江戸川 (Edogawa),2015-11-21,04:01～05:00,0.0630,0.0559,0.0594,
江戸川 (Edogawa),2015-11-21,03:01～04:00,0.0628,0.0551,0.0596,
江戸川 (Edogawa),2015-11-21,02:01～03:00,0.0647,0.0555,0.0589,
江戸川 (Edogawa),2015-11-21,01:01～02:00,0.0623,0.0555,0.0587,
江戸川 (Edogawa),2015-11-21,00:01～01:00,0.0621,0.0555,0.0583,
江戸川 (Edogawa),2015-11-20,23:01～24:00,0.0612,0.0550,0.0581,
江戸川 (Edogawa),2015-11-20,22:01～23:00,0.0618,0.0540,0.0583,
江戸川 (Edogawa),2015-11-20,21:01～22:00,0.0626,0.0555,0.0597,
江戸川 (Edogawa),2015-11-20,20:01～21:00,0.0636,0.0560,0.0599,
江戸川 (Edogawa),2015-11-20,19:01～20:00,0.0629,0.0557,0.0583,
江戸川 (Edogawa),2015-11-20,18:01～19:00,0.0618,0.0546,0.0585,
江戸川 (Edogawa),2015-11-20,17:01～18:00,0.0618,0.0555,0.0586,
江戸川 (Edogawa),2015-11-20,16:01～17:00,0.0621,0.0547,0.0584,
江戸川 (Edogawa),2015-11-20,15:01～16:00,0.0623,0.0552,0.0584,
江戸川 (Edogawa),2015-11-20,14:01～15:00,0.0621,0.0557,0.0586,
江戸川 (Edogawa),2015-11-20,13:01～14:00,0.0619,0.0558,0.0587,
江戸川 (Edogawa),2015-11-20,12:01～13:00,0.0637,0.0563,0.0599,
江戸川 (Edogawa),2015-11-20,11:01～12:00,0.0643,0.0574,0.0605,
江戸川 (Edogawa),2015-11-20,10:01～11:00,0.0634,0.0559,0.0602,
江戸川 (Edogawa),2015-11-20,09:01～10:00,0.0623,0.0572,0.0596,
江戸川 (Edogawa),2015-11-20,08:01～09:00,0.0628,0.0547,0.0589,
江戸川 (Edogawa),2015-11-20,07:01～08:00,0.0624,0.0552,0.0586,
江戸川 (Edogawa),2015-11-20,06:01～07:00,0.0619,0.0549,0.0585,
江戸川 (Edogawa),2015-11-20,05:01～06:00,0.0619,0.0555,0.0585,
江戸川 (Edogawa),2015-11-20,04:01～05:00,0.0631,0.0558,0.0587,
江戸川 (Edogawa),2015-11-20,03:01～04:00,0.0621,0.0551,0.0582,
江戸川 (Edogawa),2015-11-20,02:01～03:00,0.0624,0.0545,0.0583,
江戸川 (Edogawa),2015-11-20,01:01～02:00,0.0612,0.0542,0.0581,
江戸川 (Edogawa),2015-11-20,00:01～01:00,0.0622,0.0536,0.0581,
江戸川 (Edogawa),2015-11-19,23:01～24:00,0.0618,0.0553,0.0580,
江戸川 (Edogawa),2015-11-19,22:01～23:00,0.0608,0.0536,0.0580,
江戸川 (Edogawa),2015-11-19,21:01～22:00,0.0608,0.0542,0.0578,
江戸川 (Edogawa),2015-11-19,20:01～21:00,0.0612,0.0538,0.0579,
江戸川 (Edogawa),2015-11-19,19:01～20:00,0.0620,0.0555,0.0583,
江戸川 (Edogawa),2015-11-19,18:01～19:00,0.0610,0.0562,0.0586,
江戸川 (Edogawa),2015-11-19,17:01～18:00,0.0630,0.0554,0.0586,
江戸川 (Edogawa),2015-11-19,16:01～17:00,0.0616,0.0553,0.0584,
江戸川 (Edogawa),2015-11-19,15:01～16:00,0.0616,0.0561,0.0587,
江戸川 (Edogawa),2015-11-19,14:01～15:00,0.0639,0.0541,0.0588,
江戸川 (Edogawa),2015-11-19,13:01～14:00,0.0614,0.0551,0.0587,
江戸川 (Edogawa),2015-11-19,12:01～13:00,0.0615,0.0562,0.0587,
江戸川 (Edogawa),2015-11-19,11:01～12:00,0.0626,0.0559,0.0593,
江戸川 (Edogawa),2015-11-19,10:01～11:00,0.0636,0.0555,0.0593,
江戸川 (Edogawa),2015-11-19,09:01～10:00,0.0635,0.0561,0.0585,
江戸川 (Edogawa),2015-11-19,08:01～09:00,0.0617,0.0555,0.0585,
江戸川 (Edogawa),2015-11-19,07:01～08:00,0.0620,0.0541,0.0588,
江戸川 (Edogawa),2015-11-19,06:01～07:00,0.0643,0.0558,0.0588,
江戸川 (Edogawa),2015-11-19,05:01～06:00,0.0630,0.0570,0.0602,
江戸川 (Edogawa),2015-11-19,04:01～05:00,0.0721,0.0590,0.0662,
江戸川 (Edogawa),2015-11-19,03:01～04:00,0.0888,0.0675,0.0780,
江戸川 (Edogawa),2015-11-19,02:01～03:00,0.0892,0.0791,0.0835,
江戸川 (Edogawa),2015-11-19,01:01～02:00,0.0976,0.0818,0.0894,
江戸川 (Edogawa),2015-11-19,00:01～01:00,0.0985,0.0676,0.0806,
江戸川 (Edogawa),2015-11-18,23:01～24:00,0.0740,0.0664,0.0698,
江戸川 (Edogawa),2015-11-18,22:01～23:00,0.0699,0.0592,0.0645,
江戸川 (Edogawa),2015-11-18,21:01～22:00,0.0684,0.0597,0.0636,
江戸川 (Edogawa),2015-11-18,20:01～21:00,0.0739,0.0642,0.0698,
江戸川 (Edogawa),2015-11-18,19:01～20:00,0.0749,0.0616,0.0694,
江戸川 (Edogawa),2015-11-18,18:01～19:00,0.0691,0.0619,0.0652,
江戸川 (Edogawa),2015-11-18,17:01～18:00,0.0708,0.0625,0.0662,
江戸川 (Edogawa),2015-11-18,16:01～17:00,0.0703,0.0628,0.0655,
江戸川 (Edogawa),2015-11-18,15:01～16:00,0.0675,0.0553,0.0625,
江戸川 (Edogawa),2015-11-18,14:01～15:00,0.0640,0.0568,0.0597,
江戸川 (Edogawa),2015-11-18,13:01～14:00,0.0623,0.0542,0.0594,
江戸川 (Edogawa),2015-11-18,12:01～13:00,0.0626,0.0570,0.0596,
江戸川 (Edogawa),2015-11-18,11:01～12:00,0.0627,0.0563,0.0598,
江戸川 (Edogawa),2015-11-18,10:01～11:00,0.0623,0.0566,0.0597,
江戸川 (Edogawa),2015-11-18,09:01～10:00,0.0640,0.0570,0.0601,
江戸川 (Edogawa),2015-11-18,08:01～09:00,0.0633,0.0565,0.0598,
江戸川 (Edogawa),2015-11-18,07:01～08:00,0.0636,0.0554,0.0594,
江戸川 (Edogawa),2015-11-18,06:01～07:00,0.0619,0.0547,0.0588,
江戸川 (Edogawa),2015-11-18,05:01～06:00,0.0626,0.0573,0.0596,
江戸川 (Edogawa),2015-11-18,04:01～05:00,0.0619,0.0560,0.0593,
江戸川 (Edogawa),2015-11-18,03:01～04:00,0.0631,0.0558,0.0596,
江戸川 (Edogawa),2015-11-18,02:01～03:00,0.0645,0.0577,0.0604,
江戸川 (Edogawa),2015-11-18,01:01～02:00,0.0683,0.0589,0.0640,
江戸川 (Edogawa),2015-11-18,00:01～01:00,0.0733,0.0649,0.0688,
江戸川 (Edogawa),2015-11-17,23:01～24:00,0.0736,0.0654,0.0693,
江戸川 (Edogawa),2015-11-17,22:01～23:00,0.0701,0.0624,0.0664,
江戸川 (Edogawa),2015-11-17,21:01～22:00,0.0689,0.0610,0.0654,
江戸川 (Edogawa),2015-11-17,20:01～21:00,0.0670,0.0604,0.0642,
江戸川 (Edogawa),2015-11-17,19:01～20:00,0.0640,0.0554,0.0603,
江戸川 (Edogawa),2015-11-17,18:01～19:00,0.0630,0.0556,0.0595,
江戸川 (Edogawa),2015-11-17,17:01～18:00,0.0637,0.0557,0.0595,
江戸川 (Edogawa),2015-11-17,16:01～17:00,0.0625,0.0569,0.0592,
江戸川 (Edogawa),2015-11-17,15:01～16:00,0.0625,0.0558,0.0590,
江戸川 (Edogawa),2015-11-17,14:01～15:00,0.0626,0.0556,0.0594,
江戸川 (Edogawa),2015-11-17,13:01～14:00,0.0621,0.0560,0.0592,
江戸川 (Edogawa),2015-11-17,12:01～13:00,0.0628,0.0554,0.0594,
江戸川 (Edogawa),2015-11-17,11:01～12:00,0.0623,0.0558,0.0592,
江戸川 (Edogawa),2015-11-17,10:01～11:00,0.0622,0.0555,0.0591,
江戸川 (Edogawa),2015-11-17,09:01～10:00,0.0630,0.0563,0.0592,
江戸川 (Edogawa),2015-11-17,08:01～09:00,0.0621,0.0556,0.0589,
江戸川 (Edogawa),2015-11-17,07:01～08:00,0.0627,0.0542,0.0591,
江戸川 (Edogawa),2015-11-17,06:01～07:00,0.0620,0.0549,0.0588,
江戸川 (Edogawa),2015-11-17,05:01～06:00,0.0623,0.0563,0.0588,
江戸川 (Edogawa),2015-11-17,04:01～05:00,0.0610,0.0554,0.0588,
江戸川 (Edogawa),2015-11-17,03:01～04:00,0.0636,0.0552,0.0589,
江戸川 (Edogawa),2015-11-17,02:01～03:00,0.0627,0.0563,0.0590,
江戸川 (Edogawa),2015-11-17,01:01～02:00,0.0629,0.0557,0.0592,
江戸川 (Edogawa),2015-11-17,00:01～01:00,0.0638,0.0562,0.0596,
江戸川 (Edogawa),2015-11-16,23:01～24:00,0.0630,0.0563,0.0603,
江戸川 (Edogawa),2015-11-16,22:01～23:00,0.0629,0.0557,0.0592,
江戸川 (Edogawa),2015-11-16,21:01～22:00,0.0617,0.0558,0.0588,
江戸川 (Edogawa),2015-11-16,20:01～21:00,0.0625,0.0564,0.0592,
江戸川 (Edogawa),2015-11-16,19:01～20:00,0.0619,0.0562,0.0591,
江戸川 (Edogawa),2015-11-16,18:01～19:00,0.0617,0.0562,0.0587,
江戸川 (Edogawa),2015-11-16,17:01～18:00,0.0620,0.0558,0.0590,
江戸川 (Edogawa),2015-11-16,16:01～17:00,0.0631,0.0555,0.0589,
江戸川 (Edogawa),2015-11-16,15:01～16:00,0.0630,0.0547,0.0591,
江戸川 (Edogawa),2015-11-16,14:01～15:00,0.0621,0.0557,0.0589,
江戸川 (Edogawa),2015-11-16,13:01～14:00,0.0641,0.0563,0.0591,
江戸川 (Edogawa),2015-11-16,12:01～13:00,0.0623,0.0557,0.0588,
江戸川 (Edogawa),2015-11-16,11:01～12:00,0.0630,0.0559,0.0589,
江戸川 (Edogawa),2015-11-16,10:01～11:00,0.0626,0.0559,0.0593,
江戸川 (Edogawa),2015-11-16,09:01～10:00,0.0620,0.0556,0.0585,
江戸川 (Edogawa),2015-11-16,08:01～09:00,0.0624,0.0556,0.0589,
江戸川 (Edogawa),2015-11-16,07:01～08:00,0.0625,0.0554,0.0587,
江戸川 (Edogawa),2015-11-16,06:01～07:00,0.0619,0.0544,0.0582,
江戸川 (Edogawa),2015-11-16,05:01～06:00,0.0617,0.0544,0.0582,
江戸川 (Edogawa),2015-11-16,04:01～05:00,0.0623,0.0555,0.0588,
江戸川 (Edogawa),2015-11-16,03:01～04:00,0.0617,0.0553,0.0583,
江戸川 (Edogawa),2015-11-16,02:01～03:00,0.0624,0.0542,0.0580,
江戸川 (Edogawa),2015-11-16,01:01～02:00,0.0609,0.0550,0.0577,
江戸川 (Edogawa),2015-11-16,00:01～01:00,0.0613,0.0544,0.0582,
